Location: Big Spring State Park
(32.2296°N, 101.4897°W)
Time: 09:59:37
(UTC-06:00)

N. Korean satellite - Visible Passes

Search period start: 23 January 2018 00:00
Search period end: 02 February 2018 00:00
Orbit: 458 x 515 km, 97.2° (Epoch: 23 January)

Date Brightness Start Highest point End Pass type
(mag) Time Alt. Az. Time Alt. Az. Time Alt. Az.
23 Jan 10.3 19:55:57 10° WSW 19:56:28 10° W 19:56:59 10° W visible
24 Jan 9.3 19:29:52 10° SSW 19:32:41 22° W 19:35:28 10° NW visible
25 Jan 8.3 07:00:52 10° NNE 07:04:07 36° E 07:07:21 10° SSE visible
25 Jan 7.7 19:05:31 10° S 19:08:58 47° W 19:12:23 10° NNW visible
26 Jan 9.8 06:38:01 10° NE 06:40:22 17° E 06:42:43 10° SE visible
26 Jan 6.4 18:41:46 10° SSE 18:45:18 72° E 18:48:48 10° N visible
27 Jan 10.3 19:54:37 10° WSW 19:55:15 10° W 19:55:52 10° W visible
28 Jan 9.3 19:28:39 10° SSW 19:31:27 22° W 19:34:15 10° NW visible
29 Jan 8.4 06:59:37 10° NNE 07:02:52 35° E 07:06:08 10° SSE visible
29 Jan 7.6 19:04:18 10° S 19:07:43 48° W 19:11:08 10° NNW visible
30 Jan 9.8 06:36:47 10° NE 06:39:07 17° E 06:41:27 10° SE visible
30 Jan 6.4 18:40:33 10° SSE 18:44:03 69° ENE 18:47:31 10° N visible
31 Jan 10.3 19:53:14 10° WSW 19:53:59 10° W 19:54:42 10° W visible
01 Feb 9.3 19:27:22 10° SSW 19:30:11 22° W 19:32:57 10° NW visible
